sat.trackr.live / text

‹ back to catalog

COSMOS 2400

NORAD 27868 · 2003-037A

PAYLOAD ACTIVE UNKNOWN

§ Identity

Operator
Country
CIS
Launch date
2003-08-19
Launch site
PLMSC
Launch vehicle
Mass (kg)
RCS (m²)
0.90

External: N2YO · Heavens-Above · Gunter

§ Orbital elements

Epoch: 2026-05-25T03:57:21.095136Z

Period
115.65 min
Inclination
82.4721°
Eccentricity
0.0022375
Mean motion
12.45189604 rev/d
Perigee alt
1,467.1 km
Apogee alt
1,502.3 km
Semi-major
7,862.8 km
B*
-1.0761e-4
RAAN
344.2908°
Arg perigee
104.9794°
Mean anomaly
255.3766°
Rev number
3,467

§ Raw data

COSMOS 24001 27868U 03037A   26145.16482749 -.00000005  00000+0 -10761-3 0  99972 27868  82.4721 344.2908 0022375 104.9794 255.3766 12.45189604 34674

JSON: /api/v1/satellites/27868 · /tle

For live sub-satellite position, see the globe view (requires WebGL).

§ Visibility from observer

Set your observer location to see the next 7 days of passes ≥ 10°. The values pass through the URL so the page stays shareable.

No JS? Fill the form by hand. The geolocation button needs JavaScript.